CST,Max TemperatureF,Mean TemperatureF,Min TemperatureF,Max Dew PointF,MeanDew PointF,Min DewpointF,Max Humidity, Mean Humidity, Min Humidity, Max Sea Level PressureIn, Mean Sea Level PressureIn, Min Sea Level PressureIn, Max VisibilityMiles, Mean VisibilityMiles, Min VisibilityMiles, Max Wind SpeedMPH, Mean Wind SpeedMPH, Max Gust SpeedMPH,PrecipitationIn, CloudCover, Events, WindDirDegrees
2012-11-1,46,37,27,32,28,23,84,64,43,30.03,29.95,29.90,10,10,10,16,7,23,0.00,4,,325
2012-11-2,39,29,19,31,25,18,91,77,59,30.15,30.10,30.04,10,10,5,8,1,,0.00,3,,42
2012-11-3,44,40,35,32,30,27,84,70,50,30.20,30.18,30.14,10,10,7,6,1,,0.00,8,,58
2012-11-4,46,37,28,35,33,27,96,79,64,30.21,30.17,30.12,10,8,0,8,2,,0.00,7,Fog,100
2012-11-5,45,42,40,36,35,32,83,74,66,30.18,30.11,29.94,10,9,7,12,5,17,0.00,8,Rain,138
2012-11-6,45,42,39,39,36,33,91,82,68,29.96,29.84,29.77,10,8,2,17,12,23,0.10,8,Rain,277
2012-11-7,45,40,36,35,34,31,88,77,63,30.11,30.06,29.96,10,10,10,8,4,,0.00,7,,247
2012-11-8,56,44,32,41,34,30,94,75,52,30.06,29.97,29.91,10,10,5,18,8,26,0.00,0,,185
2012-11-9,54,42,29,41,36,28,96,77,56,30.02,29.96,29.90,10,7,1,17,6,25,0.00,2,Rain,80
2012-11-10,72,58,44,56,50,41,89,75,52,29.89,29.63,29.48,10,6,2,20,14,37,0.23,5,Rain-Thunderstorm,144
2012-11-11,58,40,23,54,29,13,90,79,65,29.95,29.76,29.52,10,9,2,22,13,28,0.02,8,Rain-Snow,269
2012-11-12,28,24,20,19,16,11,83,72,60,30.28,30.08,29.95,10,9,0,24,13,30,0.00,4,Snow,259
2012-11-13,43,30,17,28,21,14,84,68,49,30.36,30.31,30.26,10,10,10,12,7,18,0.00,1,,185
2012-11-14,52,44,35,34,31,27,82,66,45,30.26,30.21,30.15,10,10,10,9,6,,0.00,3,,189
2012-11-15,53,40,28,34,29,15,80,61,46,30.43,30.24,30.12,10,10,10,12,8,,0.00,1,,265
2012-11-16,46,31,16,30,21,14,86,65,34,30.47,30.41,30.32,10,10,10,9,1,,0.00,0,,169
2012-11-17,55,46,36,37,34,30,78,63,49,30.32,30.26,30.20,10,10,7,18,10,26,0.00,1,,178
2012-11-18,59,52,44,34,32,30,60,49,34,30.21,30.13,30.07,10,10,10,20,15,26,0.00,3,,172
2012-11-19,59,46,34,40,36,32,91,61,43,30.10,30.04,30.00,10,10,5,13,9,21,0.00,3,,180
2012-11-20,53,40,27,38,32,26,95,79,47,30.16,30.10,30.05,10,7,0,8,3,,0.00,0,Fog,215
2012-11-21,68,54,40,42,37,32,74,55,32,30.05,29.89,29.72,10,10,10,16,10,23,0.00,0,,193
2012-11-22,60,44,26,42,35,16,84,65,46,29.98,29.75,29.62,10,10,4,29,16,39,0.00,3,Rain-Snow,246
2012-11-23,28,22,17,18,15,12,81,69,55,30.34,30.22,29.99,10,9,4,26,20,37,0.00,6,Snow,310
2012-11-24,31,20,9,18,12,6,87,65,40,30.33,30.08,29.78,10,10,10,12,5,20,0.00,0,,180
2012-11-25,33,29,25,23,21,14,74,67,55,30.13,29.95,29.79,10,10,10,16,8,23,0.00,7,,294
2012-11-26,27,19,11,13,7,4,79,63,44,30.39,30.32,30.14,10,10,10,18,10,21,0.00,1,,300
2012-11-27,40,26,12,22,15,6,85,66,47,30.34,30.20,30.08,10,10,10,21,8,26,0.00,1,,211
2012-11-28,37,29,21,23,21,18,88,72,52,30.34,30.22,30.08,10,10,10,10,4,,0.00,3,,229
2012-11-29,43,31,19,26,23,16,88,68,49,30.07,30.04,30.00,10,10,7,10,5,,0.00,0,,64
2012-11-30,37,35,33,33,30,25,90,81,70,30.15,30.09,30.04,10,6,2,14,8,17,0.00,7,,97